FW6247 Weather Reports


Display with metric or nautical units.
time (UTC)temp
F
wind
direction
speed
MPH
gust
MPH
rain 1hr
in
rain 24hr
in
rain mn
in
humidity
%
barometer
mb
20260901094537 54 155 0.0 3.0 0.00 0.00 0.00 63 1010.3
20260901093036 54 157 0.0 4.0 0.00 0.00 0.00 62 1010.3
20260901090038 54 210 0.0 2.0 0.00 0.00 0.00 57 1010.3
20260901084536 57 181 0.0 2.0 0.00 0.00 0.00 54 1010.4
20260901083036 58 156 0.0 5.0 0.00 0.00 0.00 51 1010.5
20260901081537 57 158 4.0 6.0 0.00 0.00 0.00 51 1010.4
20260901080038 59 177 0.0 4.0 0.00 0.00 0.00 48 1010.5
20260901073037 59 163 4.0 8.0 0.00 0.00 0.00 46 1010.5
20260901070037 60 158 4.0 6.0 0.00 0.00 0.00 46 1010.4
20260901064537 61 158 3.0 6.0 0.00 0.00 0.00 45 1010.5
20260901063036 61 159 4.0 7.0 0.00 0.00 0.00 44 1010.7
20260901061537 62 170 4.0 7.0 0.00 0.00 0.00 43 1010.8
20260901060037 62 165 5.0 8.0 0.00 0.00 0.00 43 1010.7
20260901053038 63 169 5.0 8.0 0.00 0.00 0.00 43 1010.8
20260901051537 62 163 6.0 9.0 0.00 0.00 0.00 45 1010.9
20260901050038 62 158 3.0 7.0 0.00 0.00 0.00 47 1010.8
20260901044536 62 158 4.0 5.0 0.00 0.00 0.00 46 1010.8
20260901043036 63 167 4.0 6.0 0.00 0.00 0.00 45 1010.8
20260901041536 64 179 3.0 5.0 0.00 0.00 0.00 44 1010.8
20260901040038 65 171 1.0 4.0 0.00 0.00 0.00 44 1010.7
20260901034536 64 150 2.0 5.0 0.00 0.00 0.00 45 1010.5
20260901033039 67 116 0.0 3.0 0.00 0.00 0.00 42 1010.3
20260901031537 69 112 0.0 0.0 0.00 0.00 0.00 38 1010.2
20260901030047 68 112 0.0 0.0 0.00 0.00 0.00 40 1010.2
20260901024538 70 105 0.0 0.0 0.00 0.00 0.00 38 1010.1
20260901023036 70 67 0.0 2.0 0.00 0.00 0.00 38 1009.9
20260901021535 74 67 1.0 2.0 0.00 0.00 0.00 35 1009.8
20260901020037 78 64 1.0 3.0 0.00 0.00 0.00 28 1009.9
20260901014530 80 60 1.0 4.0 0.00 0.00 0.00 26 1009.9
20260901013034 82 48 0.0 3.0 0.00 0.00 0.00 25 1009.9
20260901011544 83 39 1.0 4.0 0.00 0.00 0.00 24 1009.9
20260901010035 83 17 1.0 7.0 0.00 0.00 0.00 24 1010.1
20260901004609 83 20 2.0 6.0 0.00 0.00 0.00 25 1010.2
20260901003034 83 41 3.0 8.0 0.00 0.00 0.00 25 1010.2
20260901001534 83 39 1.0 6.0 0.00 0.00 0.00 25 1010.3
20260901000036 82 47 2.0 7.0 0.00 0.00 0.00 25 1010.5
20260831234535 83 51 2.0 7.0 0.00 0.00 0.00 25 1010.7
20260831233034 82 36 2.0 7.0 0.00 0.00 0.00 25 1011.0
20260831230032 82 35 2.0 9.0 0.00 0.00 0.00 25 1011.3
20260831224533 81 16 2.0 8.0 0.00 0.00 0.00 26 1011.6
20260831221532 81 22 3.0 9.0 0.00 0.00 0.00 27 1011.9
20260831220030 80 352 0.0 6.0 0.00 0.00 0.00 28 1012.0
20260831213035 79 46 2.0 8.0 0.00 0.00 0.00 28 1012.6
20260831211537 79 25 2.0 8.0 0.00 0.00 0.00 30 1012.7
20260831203143 78 43 3.0 10.0 0.00 0.00 0.00 30 1013.5
20260831201534 79 47 3.0 10.0 0.00 0.00 0.00 30 1013.8
20260831194534 77 9 2.0 6.0 0.00 0.00 0.00 33 1014.2
20260831193031 77 13 2.0 9.0 0.00 0.00 0.00 34 1014.4
20260831190033 73 34 3.0 8.0 0.00 0.00 0.00 38 1015.0
20260831184530 71 23 3.0 11.0 0.00 0.00 0.00 41 1015.3
20260831183031 70 21 2.0 7.0 0.00 0.00 0.00 44 1015.5
20260831181535 69 356 0.0 5.0 0.00 0.00 0.00 47 1015.8
20260831180031 69 2 0.0 6.0 0.00 0.00 0.00 47 1016.0
20260831174613 68 5 1.0 4.0 0.00 0.00 0.00 48 1016.1
20260831173031 68 359 1.0 7.0 0.00 0.00 0.00 49 1016.2
20260831170038 65 354 1.0 6.0 0.00 0.00 0.00 53 1016.4
20260831164538 65 357 1.0 7.0 0.00 0.00 0.00 53 1016.4
20260831163030 66 1 0.0 4.0 0.00 0.00 0.00 53 1016.6
20260831161530 67 334 0.0 2.0 0.00 0.00 0.00 54 1016.7
20260831160038 67 254 0.0 0.0 0.00 0.00 0.00 58 1016.7
20260831154538 65 157 0.0 0.0 0.00 0.00 0.00 63 1016.8
20260831153037 62 157 0.0 0.0 0.00 0.00 0.00 70 1016.8
20260831151536 58 157 1.0 3.0 0.00 0.00 0.00 74 1016.9
20260831150039 54 157 1.0 4.0 0.00 0.00 0.00 77 1016.6
20260831144536 50 159 3.0 5.0 0.00 0.00 0.00 79 1016.5
20260831143037 48 162 3.0 7.0 0.00 0.00 0.00 80 1016.4
20260831141538 48 157 0.0 1.0 0.00 0.00 0.00 79 1016.3
20260831140037 48 161 2.0 5.0 0.00 0.00 0.00 78 1016.3
20260831134556 48 158 1.0 5.0 0.00 0.00 0.00 77 1016.3
20260831133038 48 165 1.0 4.0 0.00 0.00 0.00 77 1016.3
20260831131537 49 161 3.0 5.0 0.00 0.00 0.00 75 1016.3
20260831124536 50 162 5.0 7.0 0.00 0.00 0.00 75 1016.3
20260831123036 50 163 4.0 6.0 0.00 0.00 0.00 75 1016.3
20260831114537 50 158 3.0 6.0 0.00 0.00 0.00 74 1016.4
20260831113039 49 160 4.0 7.0 0.00 0.00 0.00 75 1016.3
20260831111537 50 156 2.0 5.0 0.00 0.00 0.00 73 1016.3
20260831104537 51 158 4.0 7.0 0.00 0.00 0.00 72 1016.3
20260831101538 51 157 3.0 6.0 0.00 0.00 0.00 70 1016.4
20260831100036 52 166 4.0 7.0 0.00 0.00 0.00 69 1016.5